Stillwater, OK

1:47 AM CST on February 21, 2018 (GMT -0600)
Stillwater Municipal

Weather History for KSWO - July, 2013

Change the Weather History Date:

Tuesday, July 30, 2013

  Actual Average Record
Temperature  
Mean Temperature 79 °F -  
Max Temperature 91 °F 92 °F 111 °F (2012)
Min Temperature 69 °F 69 °F 60 °F (2005)
Cooling Degree Days 14    
Growing Degree Days 29 (Base 50)    
Moisture  
Dew Point 72 °F    
Average Humidity 83    
Maximum Humidity 100    
Minimum Humidity 59    
Precipitation  
Precipitation 0.66 in - - ()
Sea Level Pressure  
Sea Level Pressure 29.97 in    
Wind  
Wind Speed 6 mph (South)    
Max Wind Speed 15 mph    
Max Gust Speed 20 mph    
Visibility 9 miles    
Events Rain , Thunderstorm    
Averages and records for this station are not official NWS values.
T = Trace of Precipitation, MM = Missing Value Source: NWS Daily Summary

Daily Weather History Graph

Daily Weather History Graph

Search for Another Location

Airport or City:

Trip Planner

Search our weather history database for the weather conditions in past years. The results will help you decide how hot, cold, wet, or windy it might be!

Date:

Astronomy

Jul. 30, 2013 Rise Set
Actual Time 6:34 AM CDT 8:35 PM CDT
Civil Twilight 6:05 AM CDT 9:03 PM CDT
Nautical Twilight 5:30 AM CDT 9:37 PM CDT
Astronomical Twilight 4:53 AM CDT 10:15 PM CDT
Moon 12:51 AM CDT (7/30) 2:56 PM CDT (7/30)
Length of Visible Light 14h 57m
Length of Day
14h 01m
Last Quarter, 41% of the Moon is Illuminated
Jul 30
Last Quarter
Aug 6
New
Aug 14
First Quarter
Aug 20
Full
Aug 28
Last Quarter

Hourly Weather History & Observations

Time (CDT) Temp. Heat Index Dew Point Humidity Pressure Visibility Wind Dir Wind Speed Gust Speed Precip Events Conditions
12:00 AM 69.8 °F - 69.8 °F 100% 30.01 in 1.2 mi SSW 6.9 mph - 0.13 in Rain , Thunderstorm Heavy Thunderstorms and Rain
12:12 AM 69.8 °F - 69.8 °F 100% 30.01 in 3.0 mi South 15.0 mph 19.6 mph 0.26 in Rain , Thunderstorm Thunderstorms and Rain
12:40 AM 71.6 °F - 69.8 °F 94% 29.97 in 1.8 mi East 4.6 mph - 0.51 in Rain , Thunderstorm Heavy Thunderstorms and Rain
12:45 AM 71.6 °F - 69.8 °F 94% 29.97 in 3.0 mi ESE 6.9 mph - 0.53 in Rain , Thunderstorm Heavy Thunderstorms and Rain
12:53 AM 71.1 °F - 69.1 °F 93% 29.93 in 5.0 mi SE 12.7 mph - 0.55 in Rain , Thunderstorm Thunderstorms and Rain
1:53 AM 71.1 °F - 69.1 °F 93% 29.92 in 10.0 mi South 11.5 mph 17.3 mph 0.06 in Rain , Thunderstorm Light Rain
1:56 AM 71.6 °F - 69.8 °F 94% 29.96 in 10.0 mi South 6.9 mph 17.3 mph 0.01 in Rain Light Rain
2:04 AM 71.6 °F - 69.8 °F 94% 29.95 in 10.0 mi ESE 8.1 mph - 0.01 in Rain , Thunderstorm Light Thunderstorms and Rain
2:20 AM 71.6 °F - 69.8 °F 94% 30.00 in 10.0 mi WNW 13.8 mph 19.6 mph 0.02 in Rain , Thunderstorm Light Rain
2:53 AM 71.1 °F - 70.0 °F 96% 29.97 in 10.0 mi SW 9.2 mph - 0.04 in Rain Light Rain
3:30 AM 71.6 °F - 69.8 °F 94% 29.97 in 10.0 mi South 4.6 mph - 0.01 in   Mostly Cloudy
3:53 AM 70.0 °F - 69.1 °F 97% 29.93 in 10.0 mi South 3.5 mph - 0.01 in   Scattered Clouds
4:53 AM 70.0 °F - 69.1 °F 97% 29.93 in 10.0 mi Calm Calm - N/A   Partly Cloudy
5:53 AM 70.0 °F - 69.1 °F 97% 29.93 in 10.0 mi ENE 3.5 mph - N/A   Clear
6:53 AM 70.0 °F - 69.1 °F 97% 29.97 in 10.0 mi Calm Calm - N/A   Clear
7:53 AM 71.1 °F - 69.1 °F 93% 29.98 in 10.0 mi East 5.8 mph - N/A   Clear
8:53 AM 73.9 °F - 71.1 °F 91% 29.99 in 10.0 mi ESE 4.6 mph - N/A   Clear
9:53 AM 78.1 °F - 72.0 °F 81% 29.98 in 10.0 mi Variable 3.5 mph - N/A   Clear
10:53 AM 82.0 °F 86.7 °F 72.0 °F 71% 30.00 in 10.0 mi SW 5.8 mph - N/A   Clear
11:53 AM 82.9 °F 88.8 °F 73.0 °F 72% 30.00 in 10.0 mi Calm Calm - N/A   Mostly Cloudy
12:53 PM 84.0 °F 90.2 °F 73.0 °F 69% 29.99 in 10.0 mi West 4.6 mph - N/A   Mostly Cloudy
1:22 PM 84.2 °F 90.9 °F 73.4 °F 70% 30.02 in 10.0 mi West 5.8 mph - N/A   Mostly Cloudy
1:29 PM 84.2 °F 89.6 °F 71.6 °F 66% 30.02 in 10.0 mi WSW 5.8 mph - N/A   Mostly Cloudy
1:53 PM 88.0 °F 98.5 °F 75.9 °F 67% 29.97 in 10.0 mi South 3.5 mph - N/A   Scattered Clouds
2:07 PM 87.8 °F 95.6 °F 73.4 °F 62% 30.01 in 10.0 mi Calm Calm - N/A   Mostly Cloudy
2:23 PM 87.8 °F 95.6 °F 73.4 °F 62% 30.01 in 10.0 mi Calm Calm - N/A   Scattered Clouds
2:53 PM 89.1 °F 99.1 °F 75.0 °F 63% 29.97 in 10.0 mi SW 4.6 mph - N/A   Partly Cloudy
3:53 PM 89.1 °F 98.0 °F 73.9 °F 61% 29.97 in 10.0 mi WNW 3.5 mph - N/A   Clear
4:53 PM 89.1 °F 97.0 °F 73.0 °F 59% 29.96 in 10.0 mi Calm Calm - N/A   Overcast
5:53 PM 87.1 °F 96.3 °F 75.0 °F 67% 29.96 in 10.0 mi NNE 4.6 mph - N/A   Mostly Cloudy
6:53 PM 84.9 °F 93.3 °F 75.0 °F 72% 29.95 in 10.0 mi North 3.5 mph - N/A   Mostly Cloudy
7:53 PM 82.9 °F 90.2 °F 75.0 °F 77% 29.96 in 10.0 mi NNE 3.5 mph - N/A   Overcast
8:53 PM 82.0 °F 88.6 °F 75.0 °F 79% 29.97 in 10.0 mi NNE 3.5 mph - N/A   Overcast
9:53 PM 79.0 °F - 73.9 °F 84% 29.98 in 10.0 mi North 3.5 mph - N/A   Clear
10:53 PM 75.9 °F - 73.9 °F 94% 29.99 in 10.0 mi NNW 3.5 mph - N/A   Clear
11:53 PM 77.0 °F - 73.0 °F 88% 30.00 in 10.0 mi North 5.8 mph - N/A   Clear